QPF
0.00 0.00 0.01 0.00 0.01 0.00 0.00 0.00 0.00 0.00 0.00 0.00 0.00 0.00 0.00 0.00 0.00 0.00 0.00 0.00 0.00 0.00 0.00 0.00 0.00 0.00 0.00 0.00 0.00 0.00 0.00 0.00 0.00 0.00 0.00 0.00 0.00 0.00 0.00 0.00 0.00 0.00 0.00
0.00 0.00 0.01 0.00 0.00 0.00 0.00 0.00 0.00 0.00 0.00 0.00 0.00 0.00 0.00 0.00 0.00 0.00 0.00 0.00 0.00 0.00 0.00 0.00 0.00 0.00 0.00 0.00 0.00 0.00 0.00 0.00 0.00 0.00 0.00 0.00 0.00 0.00 0.00 0.00 0.00 0.00 0.00
0.00 0.00 0.00 0.00 0.00 0.00 0.00 0.00 0.00 0.00 0.01 0.00 0.00 0.00 0.00 0.00 0.00 0.00 0.00 0.00 0.00 0.00 0.00 0.00 0.00 0.00 0.00 0.00 0.00 0.00 0.00 0.00 0.00 0.00 0.00 0.00 0.00 0.00 0.00 0.00 0.00 0.00 0.00
0.00 0.00 0.00 0.00 0.00 0.00 0.00 0.00 0.00 0.01 0.01 0.00 0.00 0.00 0.00 0.00 0.00 0.00 0.00 0.00 0.00 0.00 0.00 0.00 0.00 0.00 0.00 0.00 0.00 0.00 0.00 0.00 0.00 0.00 0.00 0.00 0.00 0.00 0.00 0.01 0.01 0.00 0.00
0.00 0.00 0.01 0.00 0.01 0.00 0.00 0.00 0.00 0.00 0.00 0.00 0.00 0.00 0.00 0.00 0.00 0.01 0.00 0.00 0.00 0.00 0.00 0.00 0.00 0.00 0.00 0.00 0.00 0.00 0.00 0.00 0.00 0.00 0.00 0.00 0.00 0.01 0.01 0.01 0.02 0.02 0.02
0.00 0.00 0.00 0.01 0.00 0.00 0.00 0.00 0.00 0.00 0.00 0.00 0.00 0.00 0.00 0.00 0.00 0.01 0.00 0.00 0.00 0.00 0.00 0.00 0.00 0.00 0.00 0.00 0.00 0.00 0.00 0.00 0.00 0.00 0.00 0.00 0.01 0.00 0.00 0.00 0.00 0.01 0.01
0.00 0.00 0.00 0.01 0.00 0.00 0.00 0.00 0.00 0.00 0.00 0.00 0.00 0.00 0.00 0.00 0.01 0.01 0.00 0.00 0.00 0.00 0.00 0.00 0.00 0.00 0.00 0.00 0.00 0.00 0.00 0.00 0.00 0.00 0.00 0.00 0.00 0.00 0.00 0.00 0.00 0.00 0.01
0.00 0.00 0.00 0.01 0.00 0.00 0.00 0.00 0.00 0.00 0.00 0.00 0.00 0.01 0.01 0.01 0.02 0.00 0.00 0.00 0.00 0.00 0.00 0.00 0.00 0.00 0.00 0.00 0.00 0.00 0.00 0.00 0.00 0.00 0.00 0.00 0.00 0.00 0.00 0.00 0.00 0.00 0.00
0.00 0.00 0.00 0.00 0.00 0.00 0.00 0.00 0.00 0.00 0.00 0.00 0.00 0.00 0.01 0.01 0.01 0.00 0.00 0.00 0.00 0.00 0.00 0.00 0.00 0.00 0.00 0.00 0.00 0.00 0.00 0.00 0.00 0.00 0.00 0.00 0.00 0.00 0.00 0.00 0.00 0.00 0.00
0.00 0.00 0.00 0.00 0.00 0.00 0.00 0.00 0.00 0.00 0.00 0.00 0.00 0.00 0.00 0.00 0.00 0.00 0.00 0.00 0.00 0.00 0.00 0.00 0.00 0.00 0.00 0.00 0.00 0.00 0.00 0.00 0.00 0.00 0.00 0.00 0.00 0.00 0.00 0.00 0.00 0.00 0.00
0.00 0.00 0.00 0.00 0.00 0.00 0.00 0.00 0.00 0.00 0.00 0.00 0.00 0.00 0.00 0.00 0.00 0.00 0.00 0.00 0.00 0.00 0.00 0.00 0.00 0.00 0.00 0.00 0.00 0.00 0.00 0.00 0.00 0.00 0.00 0.00 0.00 0.00 0.00 0.00 0.00 0.00 0.00
0.00 0.00 0.00 0.00 0.00 0.00 0.00 0.00 0.00 0.00 0.00 0.00 0.00 0.00 0.00 0.00 0.00 0.00 0.00 0.00 0.00 0.00 0.00 0.00 0.00 0.00 0.00 0.00 0.00 0.00 0.00 0.00 0.00 0.00 0.00 0.00 0.00 0.00 0.00 0.00 0.00 0.00 0.00
0.00 0.00 0.00 0.00 0.00 0.00 0.00 0.00 0.00 0.00 0.00 0.00 0.00 0.00 0.00 0.00 0.00 0.00 0.00 0.00 0.00 0.00 0.00 0.00 0.00 0.00 0.00 0.00 0.00 0.00 0.00 0.00 0.00 0.00 0.00 0.00 0.00 0.00 0.00 0.00 0.00 0.00 0.00
0.00 0.00 0.00 0.00 0.00 0.00 0.00 0.00 0.00 0.00 0.00 0.00 0.00 0.00 0.00 0.00 0.00 0.00 0.00 0.00 0.00 0.00 0.00 0.00 0.00 0.00 0.00 0.00 0.00 0.00 0.00 0.00 0.00 0.00 0.00 0.00 0.00 0.00 0.00 0.00 0.00 0.00 0.00
0.01 0.00 0.00 0.00 0.00 0.00 0.00 0.00 0.00 0.00 0.00 0.00 0.00 0.00 0.00 0.00 0.00 0.00 0.00 0.00 0.00 0.00 0.00 0.00 0.00 0.00 0.00 0.00 0.00 0.00 0.00 0.00 0.00 0.00 0.00 0.00 0.00 0.00 0.00 0.00 0.00 0.00 0.00
0.02 0.00 0.00 0.00 0.00 0.00 0.00 0.00 0.00 0.00 0.00 0.00 0.00 0.00 0.00 0.00 0.00 0.00 0.00 0.00 0.00 0.00 0.00 0.00 0.00 0.00 0.00 0.00 0.00 0.00 0.00 0.00 0.00 0.00 0.00 0.00 0.00 0.00 0.00 0.00 0.00 0.00 0.00
0.04 0.00 0.00 0.00 0.00 0.00 0.00 0.00 0.00 0.00 0.00 0.00 0.00 0.00 0.00 0.00 0.00 0.00 0.00 0.00 0.00 0.00 0.00 0.00 0.00 0.00 0.00 0.00 0.00 0.00 0.00 0.00 0.00 0.00 0.00 0.00 0.00 0.00 0.00 0.00 0.00 0.00 0.00
0.03 0.00 0.00 0.00 0.00 0.00 0.00 0.00 0.00 0.00 0.00 0.00 0.00 0.00 0.00 0.00 0.00 0.00 0.00 0.00 0.00 0.00 0.00 0.00 0.00 0.00 0.00 0.00 0.00 0.00 0.00 0.00 0.00 0.00 0.00 0.00 0.00 0.00 0.00 0.00 0.00 0.00 0.00
0.00 0.00 0.00 0.00 0.00 0.00 0.00 0.00 0.00 0.00 0.00 0.00 0.00 0.00 0.00 0.00 0.00 0.00 0.00 0.00 0.00 0.00 0.00 0.00 0.00 0.00 0.00 0.00 0.00 0.00 0.00 0.00 0.00 0.00 0.00 0.00 0.00 0.00 0.00 0.00 0.00 0.00 0.00
0.00 0.00 0.00 0.00 0.00 0.00 0.00 0.00 0.00 0.00 0.00 0.00 0.00 0.00 0.00 0.00 0.00 0.00 0.00 0.00 0.00 0.00 0.00 0.00 0.00 0.00 0.00 0.00 0.00 0.00 0.00 0.00 0.00 0.00 0.00 0.00 0.00 0.00 0.00 0.00 0.00 0.00 0.00
0.00 0.00 0.00 0.00 0.00 0.00 0.00 0.00 0.00 0.00 0.00 0.00 0.00 0.00 0.00 0.00 0.00 0.00 0.00 0.00 0.00 0.00 0.00 0.00 0.00 0.00 0.00 0.00 0.00 0.00 0.00 0.00 0.00 0.00 0.00 0.00 0.00 0.00 0.00 0.00 0.00 0.00 0.00
0.00 0.00 0.00 0.00 0.00 0.00 0.00 0.00 0.00 0.00 0.00 0.00 0.00 0.00 0.00 0.01 0.00 0.00 0.00 0.00 0.00 0.00 0.00 0.00 0.00 0.00 0.00 0.00 0.00 0.00 0.00 0.00 0.00 0.00 0.00 0.00 0.00 0.00 0.00 0.00 0.00 0.00 0.00
0.00 0.00 0.00 0.00 0.00 0.00 0.00 0.00 0.00 0.00 0.00 0.00 0.00 0.00 0.00 0.00 0.00 0.00 0.00 0.00 0.00 0.00 0.00 0.00 0.00 0.00 0.00 0.00 0.00 0.00 0.00 0.00 0.00 0.00 0.00 0.00 0.00 0.00 0.00 0.00 0.00 0.00 0.00
0.00 0.00 0.00 0.00 0.00 0.00 0.00 0.00 0.00 0.00 0.00 0.00 0.00 0.00 0.00 0.00 0.00 0.00 0.00 0.00 0.00 0.00 0.00 0.00 0.00 0.00 0.00 0.00 0.00 0.00 0.00 0.00 0.00 0.00 0.00 0.00 0.00 0.00 0.00 0.00 0.00 0.00 0.00
0.00 0.00 0.00 0.00 0.00 0.00 0.00 0.00 0.00 0.00 0.00 0.00 0.00 0.00 0.00 0.00 0.00 0.00 0.00 0.00 0.00 0.00 0.00 0.00 0.00 0.00 0.00 0.00 0.00 0.00 0.00 0.00 0.00 0.00 0.00 0.00 0.00 0.00 0.00 0.00 0.00 0.00 0.00
0.00 0.00 0.00 0.00 0.00 0.00 0.00 0.00 0.00 0.00 0.00 0.00 0.00 0.00 0.00 0.00 0.00 0.00 0.00 0.00 0.00 0.00 0.00 0.00 0.00 0.00 0.00 0.00 0.00 0.00 0.00 0.00 0.00 0.00 0.00 0.00 0.00 0.00 0.00 0.00 0.00 0.00 0.00
MSLP
1016.49 1016.62 1017.06 1017.33 1017.71 1018.01 1018.29 1018.58 1018.84 1019.11 1019.29 1019.43 1019.52 1019.64 1019.77 1019.82 1019.91 1020.06 1020.05 1020.18 1020.11 1020.12 1020.21 1020.30 1020.45 1020.60 1020.73 1020.94 1021.17 1021.34 1021.43 1021.53 1021.60 1021.56 1021.51 1021.43 1021.34 1021.34 1021.43 1021.49 1021.40 1021.14 1021.21
1016.04 1016.59 1017.01 1017.38 1017.71 1018.04 1018.32 1018.69 1019.02 1019.27 1019.44 1019.57 1019.60 1019.90 1019.95 1020.06 1020.09 1020.31 1020.31 1020.51 1020.55 1020.52 1020.59 1020.74 1020.81 1020.97 1021.11 1021.34 1021.51 1021.64 1021.81 1021.88 1021.92 1021.93 1021.92 1021.89 1021.84 1021.78 1021.76 1021.76 1021.69 1021.56 1021.52
1016.21 1016.64 1017.05 1017.46 1017.81 1018.11 1018.41 1018.82 1019.14 1019.37 1019.58 1019.72 1019.88 1020.06 1020.18 1020.25 1020.33 1020.49 1020.61 1020.74 1020.91 1020.92 1021.04 1021.14 1021.20 1021.33 1021.55 1021.74 1021.85 1021.95 1022.08 1022.17 1022.21 1022.23 1022.22 1021.94 1021.91 1021.99 1021.94 1021.94 1021.85 1021.77 1021.69
1016.24 1016.75 1017.12 1017.57 1017.89 1018.23 1018.58 1018.96 1019.27 1019.48 1019.75 1019.96 1020.09 1020.18 1020.34 1020.46 1020.50 1020.71 1020.91 1021.09 1021.17 1021.28 1021.41 1021.52 1021.63 1021.75 1021.99 1022.09 1022.13 1022.19 1022.31 1022.41 1022.46 1022.48 1022.23 1022.14 1022.05 1022.13 1022.08 1022.02 1021.91 1021.70 1021.85
1016.39 1016.89 1017.25 1017.71 1018.06 1018.40 1018.72 1019.09 1019.41 1019.63 1019.89 1020.12 1020.23 1020.33 1020.46 1020.64 1020.71 1020.91 1021.20 1021.38 1021.53 1021.60 1021.73 1021.84 1021.94 1022.11 1022.27 1022.35 1022.32 1022.30 1022.41 1022.53 1022.63 1022.49 1022.38 1022.42 1022.35 1022.35 1022.32 1022.25 1022.03 1021.78 1022.06
1016.58 1017.04 1017.47 1017.90 1018.25 1018.60 1018.91 1019.26 1019.57 1019.83 1020.07 1020.25 1020.37 1020.46 1020.64 1020.81 1020.91 1021.12 1021.49 1021.70 1021.83 1021.89 1022.02 1022.14 1022.27 1022.41 1022.54 1022.57 1022.55 1022.54 1022.64 1022.78 1022.85 1022.71 1022.76 1022.78 1022.62 1022.65 1022.65 1022.59 1022.49 1022.31 1022.26
1016.88 1017.18 1017.69 1018.05 1018.48 1018.81 1019.08 1019.42 1019.71 1020.01 1020.18 1020.28 1020.42 1020.56 1020.82 1020.96 1021.11 1021.44 1021.81 1021.96 1022.07 1022.16 1022.27 1022.41 1022.61 1022.68 1022.79 1022.77 1022.83 1022.79 1022.91 1023.04 1022.96 1023.03 1023.10 1023.08 1022.97 1022.99 1022.99 1022.98 1022.88 1022.65 1022.48
1017.01 1017.31 1017.76 1018.30 1018.65 1019.02 1019.29 1019.58 1019.87 1020.16 1020.33 1020.40 1020.30 1020.58 1020.87 1021.06 1021.34 1021.64 1022.06 1022.13 1022.22 1022.39 1022.50 1022.66 1022.77 1022.90 1023.01 1023.09 1023.11 1023.13 1023.22 1023.30 1023.21 1023.22 1023.33 1023.26 1023.32 1023.24 1023.22 1023.26 1023.22 1023.15 1023.08
1017.05 1017.34 1017.81 1018.36 1018.84 1019.11 1019.54 1019.81 1019.95 1020.20 1020.49 1020.64 1020.58 1020.71 1020.99 1021.27 1021.56 1021.86 1022.18 1022.17 1022.23 1022.42 1022.57 1022.67 1022.82 1022.99 1023.18 1023.26 1023.35 1023.46 1023.51 1023.58 1023.30 1023.43 1023.50 1023.38 1023.45 1023.41 1023.46 1023.56 1023.47 1023.45 1023.47
1017.22 1017.47 1017.81 1018.37 1018.84 1019.20 1019.57 1020.00 1020.14 1020.31 1020.59 1020.78 1020.94 1021.06 1021.30 1021.58 1021.75 1021.98 1022.26 1022.30 1022.46 1022.63 1022.78 1022.83 1022.95 1023.07 1023.21 1023.27 1023.37 1023.43 1023.45 1023.45 1023.35 1023.53 1023.48 1023.46 1023.58 1023.51 1023.57 1023.69 1023.67 1023.65 1023.66
1017.66 1017.78 1018.00 1018.38 1018.87 1019.21 1019.52 1019.97 1020.36 1020.55 1020.72 1020.96 1021.18 1021.39 1021.65 1021.76 1021.97 1022.17 1022.39 1022.54 1022.63 1022.72 1022.83 1022.94 1023.05 1023.16 1023.30 1023.45 1023.57 1023.67 1023.68 1023.46 1023.46 1023.52 1023.48 1023.66 1023.64 1023.56 1023.62 1023.75 1023.79 1023.80 1023.74
1017.79 1018.03 1018.23 1018.54 1018.87 1019.33 1019.62 1019.87 1020.26 1020.60 1020.77 1020.98 1021.19 1021.49 1021.73 1021.90 1022.04 1022.20 1022.45 1022.67 1022.74 1022.78 1022.86 1022.94 1023.03 1023.18 1023.39 1023.48 1023.48 1023.69 1023.50 1023.57 1023.45 1023.45 1023.46 1023.65 1023.61 1023.46 1023.52 1023.68 1023.77 1023.76 1023.78
1017.91 1018.21 1018.39 1018.61 1019.01 1019.30 1019.61 1019.93 1020.23 1020.57 1020.83 1021.08 1021.37 1021.62 1021.81 1022.03 1022.20 1022.27 1022.50 1022.67 1022.78 1022.89 1022.80 1022.88 1022.95 1023.10 1023.29 1023.48 1023.59 1023.56 1023.55 1023.53 1023.41 1023.43 1023.39 1023.52 1023.47 1023.33 1023.28 1023.43 1023.61 1023.67 1023.76
1018.06 1018.24 1018.38 1018.54 1018.93 1019.35 1019.61 1019.83 1020.11 1020.42 1020.78 1021.01 1021.30 1021.60 1021.76 1021.91 1022.10 1022.30 1022.45 1022.63 1022.79 1022.78 1022.78 1022.87 1022.91 1023.02 1023.20 1023.38 1023.48 1023.52 1023.51 1023.42 1023.34 1023.33 1023.27 1023.40 1023.31 1023.21 1023.12 1023.13 1023.31 1023.46 1023.58
1017.92 1018.16 1018.41 1018.54 1018.82 1019.22 1019.61 1019.87 1020.11 1020.32 1020.56 1020.81 1021.19 1021.44 1021.62 1021.76 1021.87 1022.13 1022.34 1022.53 1022.63 1022.71 1022.72 1022.77 1022.86 1022.87 1022.96 1023.07 1023.17 1023.24 1023.23 1023.20 1023.22 1023.22 1023.14 1023.17 1023.15 1023.10 1023.03 1022.93 1022.91 1023.09 1023.29
1017.82 1017.99 1018.32 1018.56 1018.66 1019.05 1019.35 1019.64 1019.86 1020.18 1020.42 1020.79 1021.05 1021.20 1021.44 1021.59 1021.74 1022.01 1022.24 1022.34 1022.39 1022.50 1022.50 1022.60 1022.60 1022.68 1022.71 1022.82 1022.72 1022.75 1022.77 1022.83 1022.90 1022.90 1022.85 1022.72 1022.91 1022.90 1022.85 1022.79 1022.70 1022.73 1022.96
1017.54 1017.82 1018.15 1018.32 1018.50 1018.83 1019.13 1019.41 1019.65 1019.89 1020.28 1020.48 1020.69 1020.95 1021.15 1021.39 1021.58 1021.78 1021.91 1021.97 1021.95 1022.19 1022.36 1022.47 1022.51 1022.55 1022.49 1022.52 1022.37 1022.23 1022.33 1022.26 1022.33 1022.34 1022.45 1022.48 1022.47 1022.58 1022.62 1022.58 1022.47 1022.42 1022.53
1017.72 1017.73 1018.02 1018.19 1018.35 1018.54 1018.84 1019.12 1019.43 1019.69 1019.91 1020.06 1020.29 1020.54 1020.74 1020.95 1021.20 1021.45 1021.55 1021.49 1021.58 1021.83 1022.01 1022.11 1022.11 1022.17 1022.20 1022.17 1021.98 1021.74 1021.78 1021.85 1021.77 1021.77 1021.89 1021.99 1022.08 1022.02 1022.02 1022.11 1022.09 1022.06 1022.11
1017.50 1017.71 1018.04 1018.18 1018.18 1018.32 1018.53 1018.85 1019.18 1019.47 1019.70 1019.75 1020.00 1020.15 1020.31 1020.54 1020.78 1020.96 1021.01 1021.00 1021.25 1021.45 1021.61 1021.70 1021.78 1021.90 1021.70 1021.62 1021.64 1021.45 1021.43 1021.38 1021.23 1021.28 1021.18 1021.32 1021.43 1021.53 1021.45 1021.51 1021.71 1021.85 1021.98
1017.68 1017.74 1017.83 1018.05 1018.13 1018.22 1018.30 1018.70 1019.07 1019.37 1019.46 1019.51 1019.56 1019.66 1019.90 1020.08 1020.31 1020.56 1020.61 1020.58 1020.79 1020.93 1021.03 1021.19 1021.27 1021.38 1021.39 1021.30 1021.43 1021.21 1021.00 1020.82 1020.75 1020.71 1020.51 1020.49 1020.60 1020.77 1020.97 1021.14 1021.23 1021.26 1021.51
1018.09 1017.97 1017.81 1017.89 1018.02 1018.19 1018.50 1018.72 1019.01 1019.00 1019.17 1019.28 1019.29 1019.37 1019.53 1019.77 1019.98 1020.11 1020.14 1020.20 1020.45 1020.60 1020.45 1020.67 1020.83 1020.94 1020.95 1021.13 1021.35 1020.71 1020.41 1020.21 1020.17 1020.11 1020.00 1020.13 1020.17 1020.47 1020.69 1020.84 1020.95 1021.00 1020.91
1018.14 1018.20 1018.12 1018.13 1018.24 1018.32 1018.48 1018.66 1018.80 1018.93 1019.02 1019.06 1019.12 1019.23 1019.41 1019.52 1019.64 1019.75 1019.83 1019.86 1019.95 1020.17 1020.19 1020.31 1020.54 1020.57 1020.71 1020.83 1020.83 1020.95 1020.27 1019.83 1019.84 1019.93 1020.10 1020.06 1020.00 1020.20 1020.16 1020.31 1020.42 1020.45 1020.42
1018.24 1018.37 1018.42 1018.55 1018.60 1018.66 1018.71 1018.91 1019.13 1019.21 1019.29 1019.26 1019.41 1019.63 1019.92 1019.92 1019.86 1019.77 1019.69 1019.63 1019.61 1019.76 1019.80 1019.85 1020.03 1020.22 1020.23 1020.42 1020.62 1020.69 1020.44 1020.03 1020.11 1019.88 1019.88 1019.78 1019.85 1020.03 1020.18 1020.37 1020.33 1020.12 1020.11
1018.51 1018.73 1018.78 1018.89 1019.05 1019.13 1019.05 1019.11 1019.17 1019.32 1019.56 1019.79 1019.91 1020.05 1020.11 1020.17 1020.14 1020.08 1019.98 1019.83 1019.65 1019.55 1019.62 1019.60 1019.64 1019.78 1019.95 1020.00 1020.37 1020.45 1020.36 1020.42 1020.38 1020.14 1019.96 1019.89 1020.05 1020.13 1020.16 1020.13 1020.17 1020.06 1020.03
1018.65 1018.94 1019.06 1019.15 1019.27 1019.38 1019.40 1019.43 1019.53 1019.68 1019.95 1020.09 1020.21 1020.26 1020.32 1020.38 1020.44 1020.44 1020.31 1020.16 1019.92 1019.70 1019.58 1019.50 1019.46 1019.49 1019.53 1019.55 1019.67 1019.85 1020.05 1020.25 1020.46 1020.58 1020.26 1020.26 1020.17 1019.98 1019.92 1019.93 1020.07 1020.11 1020.18
1018.89 1019.11 1019.22 1019.30 1019.60 1019.72 1019.81 1019.88 1019.92 1020.01 1020.16 1020.29 1020.49 1020.57 1020.72 1020.77 1020.72 1020.76 1020.63 1020.46 1020.27 1020.04 1019.76 1019.48 1019.27 1019.17 1019.23 1019.23 1019.18 1019.35 1019.48 1019.72 1019.97 1020.29 1020.47 1020.44 1020.28 1020.05 1020.05 1020.02 1020.27 1020.53 1020.85
Thickness
5758 5758 5756 5756 5754 5752 5751 5749 5747 5745 5744 5744 5744 5743 5742 5741 5740 5739 5738 5736 5737 5736 5735 5734 5732 5730 5728 5726 5723 5720 5718 5716 5714 5714 5713 5712 5711 5710 5707 5705 5705 5705 5704
5761 5757 5755 5754 5753 5751 5750 5747 5745 5744 5743 5742 5742 5740 5740 5738 5738 5735 5735 5733 5732 5733 5732 5729 5728 5726 5724 5722 5719 5717 5714 5712 5711 5710 5709 5707 5706 5704 5703 5702 5701 5700 5699
5758 5755 5753 5752 5750 5749 5748 5745 5743 5742 5741 5740 5739 5738 5737 5736 5734 5732 5731 5730 5729 5729 5727 5725 5724 5722 5719 5717 5715 5713 5710 5708 5707 5706 5705 5704 5703 5701 5700 5699 5698 5696 5695
5756 5752 5751 5749 5748 5747 5746 5743 5741 5740 5739 5738 5737 5736 5734 5732 5732 5729 5728 5727 5726 5724 5723 5721 5720 5717 5714 5712 5711 5709 5707 5705 5704 5703 5702 5701 5700 5698 5696 5695 5694 5694 5691
5753 5750 5748 5746 5744 5744 5743 5741 5739 5738 5737 5736 5735 5733 5732 5730 5729 5727 5724 5723 5722 5721 5719 5717 5716 5713 5710 5708 5707 5706 5704 5702 5701 5699 5698 5696 5695 5693 5692 5691 5690 5691 5686
5749 5747 5745 5742 5741 5740 5739 5738 5737 5736 5734 5734 5733 5731 5729 5727 5726 5724 5721 5719 5718 5717 5716 5713 5712 5709 5706 5705 5703 5703 5701 5699 5697 5695 5692 5690 5689 5688 5687 5685 5685 5684 5683
5745 5744 5741 5739 5738 5737 5737 5735 5734 5733 5732 5732 5730 5729 5726 5724 5723 5720 5718 5716 5714 5713 5712 5710 5707 5705 5702 5701 5699 5699 5697 5695 5693 5690 5687 5686 5684 5682 5681 5680 5679 5679 5678
5741 5740 5738 5736 5735 5733 5733 5732 5731 5729 5728 5728 5728 5726 5724 5722 5720 5717 5714 5713 5712 5710 5708 5706 5704 5701 5698 5696 5695 5694 5692 5690 5689 5687 5683 5682 5680 5678 5676 5674 5673 5671 5669
5737 5737 5735 5732 5731 5731 5729 5728 5729 5727 5725 5724 5724 5722 5721 5719 5717 5714 5711 5711 5710 5708 5706 5704 5701 5698 5695 5693 5691 5689 5687 5686 5685 5682 5679 5678 5676 5674 5671 5668 5668 5666 5663
5732 5733 5731 5728 5727 5726 5726 5725 5725 5725 5723 5721 5720 5719 5716 5714 5712 5710 5709 5708 5705 5703 5702 5700 5698 5695 5693 5691 5688 5687 5685 5684 5682 5679 5677 5675 5672 5670 5668 5665 5663 5662 5660
5726 5728 5727 5725 5723 5723 5723 5722 5721 5720 5720 5718 5716 5715 5712 5710 5708 5706 5705 5703 5702 5700 5699 5697 5695 5692 5690 5688 5685 5682 5681 5680 5677 5675 5673 5670 5668 5665 5663 5661 5659 5657 5656
5718 5720 5721 5721 5720 5719 5719 5719 5718 5717 5716 5714 5713 5710 5709 5708 5706 5705 5703 5700 5698 5697 5696 5694 5692 5689 5687 5684 5682 5679 5678 5675 5674 5671 5670 5667 5664 5662 5659 5657 5655 5653 5651
5713 5716 5716 5717 5716 5715 5715 5715 5714 5713 5712 5711 5709 5707 5706 5705 5703 5702 5699 5697 5695 5694 5693 5691 5689 5686 5684 5681 5678 5676 5674 5672 5670 5668 5666 5664 5661 5658 5656 5653 5650 5648 5645
5706 5711 5714 5713 5712 5711 5711 5711 5711 5710 5708 5707 5706 5704 5703 5702 5701 5699 5697 5694 5692 5691 5690 5688 5686 5684 5681 5678 5675 5673 5671 5669 5667 5665 5663 5661 5658 5654 5652 5650 5646 5643 5641
5704 5706 5707 5709 5708 5708 5707 5707 5706 5706 5705 5704 5703 5701 5700 5699 5698 5696 5693 5691 5690 5688 5687 5685 5683 5681 5678 5676 5673 5671 5668 5666 5663 5660 5659 5657 5653 5650 5647 5645 5643 5639 5636
5700 5701 5702 5703 5706 5705 5704 5704 5704 5703 5703 5701 5700 5699 5697 5696 5695 5693 5690 5689 5688 5686 5684 5682 5680 5678 5675 5673 5671 5668 5666 5663 5660 5657 5654 5652 5649 5646 5643 5640 5638 5636 5632
5695 5698 5698 5700 5700 5701 5701 5701 5701 5701 5699 5698 5698 5696 5695 5693 5692 5690 5688 5687 5686 5683 5680 5678 5676 5674 5673 5670 5668 5667 5664 5661 5658 5654 5651 5647 5644 5642 5638 5635 5633 5631 5628
5690 5693 5694 5696 5698 5699 5698 5698 5698 5697 5697 5696 5696 5694 5693 5692 5690 5688 5686 5685 5683 5680 5678 5675 5674 5672 5669 5667 5666 5665 5662 5658 5655 5652 5648 5644 5640 5638 5635 5632 5628 5626 5623
5685 5688 5688 5691 5694 5695 5695 5694 5694 5694 5693 5693 5692 5692 5691 5689 5687 5686 5684 5683 5680 5677 5675 5672 5671 5668 5667 5665 5662 5661 5657 5655 5652 5649 5646 5642 5638 5634 5632 5628 5624 5620 5616
5677 5681 5684 5686 5689 5690 5690 5690 5689 5688 5688 5689 5689 5689 5688 5686 5684 5682 5681 5680 5677 5675 5673 5670 5668 5665 5663 5662 5657 5657 5655 5652 5649 5646 5644 5641 5637 5633 5628 5623 5619 5616 5612
5668 5672 5677 5680 5683 5685 5684 5683 5683 5684 5685 5685 5685 5684 5684 5682 5680 5679 5678 5676 5673 5671 5671 5667 5665 5661 5659 5655 5651 5654 5654 5652 5648 5643 5641 5637 5633 5628 5623 5618 5613 5610 5608
5661 5664 5668 5671 5674 5676 5677 5678 5679 5680 5680 5680 5679 5679 5678 5676 5675 5674 5673 5672 5670 5667 5666 5663 5659 5656 5653 5650 5647 5642 5646 5649 5643 5637 5632 5629 5626 5622 5619 5614 5610 5607 5604
5651 5654 5658 5661 5664 5666 5667 5667 5668 5669 5670 5671 5670 5669 5667 5667 5667 5667 5667 5666 5665 5663 5662 5659 5656 5651 5649 5646 5641 5638 5634 5636 5631 5632 5627 5625 5620 5615 5610 5606 5602 5600 5596
5640 5642 5646 5650 5653 5655 5658 5660 5661 5661 5661 5659 5659 5658 5658 5658 5658 5658 5658 5658 5657 5657 5656 5654 5650 5648 5644 5642 5635 5630 5628 5624 5621 5620 5621 5617 5611 5607 5603 5599 5594 5591 5587
5628 5631 5633 5637 5640 5643 5645 5648 5649 5649 5648 5648 5648 5649 5649 5648 5647 5647 5647 5647 5647 5647 5647 5645 5644 5641 5638 5637 5632 5627 5621 5616 5612 5607 5608 5605 5603 5601 5596 5591 5586 5581 5575
5617 5620 5624 5627 5627 5629 5632 5634 5636 5637 5637 5638 5637 5637 5636 5635 5635 5635 5635 5636 5636 5636 5636 5636 5635 5635 5632 5629 5627 5622 5618 5613 5608 5601 5596 5595 5594 5593 5588 5580 5575 5568 5561